• In Belgien
  • Länderverzeichnis
  • Für 7 Tage
  • Wassertemperatur
  • Satellitenkarten
  • Wetterkarte
  • Widgets
  • user-avatar
    Anmelden

    Stündliche Wetter Sewan

    Heute, 23 November, Donnerstag

    Zeit Temperatur Niederschläge Wind Luftdruck Luftfeuchtigkeit
    00:00 -2°C° 0 mm 1 m/S 634 mmHg 75%
    01:00 -2°C° 0 mm 1 m/S 634 mmHg 73%
    02:00 -2°C° 0 mm 1 m/S 634 mmHg 71%
    03:00 -4°C° 0 mm 2 m/S 634 mmHg 69%
    04:00 -4°C° 0,1 mm 2 m/S 635 mmHg 69%
    05:00 -4°C° 0,1 mm 2 m/S 635 mmHg 70%
    06:00 -4°C° 0,1 mm 2 m/S 635 mmHg 70%
    07:00 -4°C° 0,1 mm 2 m/S 635 mmHg 70%
    08:00 -4°C° 0,1 mm 3 m/S 636 mmHg 69%
    09:00 -2°C° 0 mm 3 m/S 635 mmHg 65%
    10:00 -1°C° 0,1 mm 3 m/S 635 mmHg 61%
    11:00 -2°C° 0,1 mm 4 m/S 635 mmHg 57%
    12:00 -1°C° 0,1 mm 4 m/S 635 mmHg 53%
    13:00 -1°C° 0,1 mm 3 m/S 636 mmHg 53%
    14:00 -1°C° 0,1 mm 3 m/S 636 mmHg 53%
    15:00 -1°C° 0,1 mm 3 m/S 636 mmHg 54%
    16:00 -1°C° 0,1 mm 2 m/S 636 mmHg 57%
    17:00 -2°C° 0,1 mm 2 m/S 636 mmHg 60%
    18:00 -3°C° 0,1 mm 2 m/S 636 mmHg 64%
    19:00 -1°C° 0,2 mm 1 m/S 637 mmHg 66%
    20:00 -1°C° 0,2 mm 1 m/S 637 mmHg 69%
    21:00 -1°C° 0,2 mm 1 m/S 637 mmHg 71%
    22:00 -2°C° 0,2 mm 1 m/S 637 mmHg 72%
    23:00 -2°C° 0,2 mm 1 m/S 637 mmHg 74%

    Morgen, 24 November, Freitag

    Zeit Temperatur Niederschläge Wind Luftdruck Luftfeuchtigkeit
    00:00 -2°C° 0,2 mm 1 m/S 637 mmHg 75%
    01:00 -2°C° 0,1 mm 1 m/S 637 mmHg 76%
    02:00 -3°C° 0,1 mm 1 m/S 637 mmHg 76%
    03:00 -3°C° 0,1 mm 1 m/S 637 mmHg 77%
    04:00 -3°C° 0,1 mm 1 m/S 638 mmHg 76%
    05:00 -3°C° 0,1 mm 1 m/S 638 mmHg 76%
    06:00 -4°C° 0,1 mm 1 m/S 638 mmHg 76%
    07:00 -3°C° 0,1 mm 1 m/S 638 mmHg 74%
    08:00 -3°C° 0,1 mm 1 m/S 638 mmHg 71%
    09:00 -3°C° 0,1 mm 1 m/S 639 mmHg 69%
    10:00 -2°C° 0 mm 1 m/S 639 mmHg 64%
    11:00 -3°C° 0 mm 2 m/S 639 mmHg 60%
    12:00 -3°C° 0 mm 2 m/S 639 mmHg 56%
    13:00 -3°C° 0 mm 2 m/S 639 mmHg 55%
    14:00 -3°C° 0 mm 2 m/S 639 mmHg 55%
    15:00 -1°C° 0 mm 1 m/S 639 mmHg 54%
    16:00 -2°C° 0 mm 1 m/S 639 mmHg 57%
    17:00 -3°C° 0 mm 1 m/S 639 mmHg 60%
    18:00 -4°C° 0 mm 1 m/S 639 mmHg 63%
    19:00 -4°C° 0 mm 1 m/S 639 mmHg 63%
    20:00 -4°C° 0 mm 1 m/S 640 mmHg 63%
    21:00 -4°C° 0 mm 1 m/S 640 mmHg 63%
    22:00 -6°C° 0 mm 1 m/S 640 mmHg 63%
    23:00 -7°C° 0 mm 2 m/S 640 mmHg 63%

    übermorgen, 25 November, Samstag

    Zeit Temperatur Niederschläge Wind Luftdruck Luftfeuchtigkeit
    00:00 -7°C° 0 mm 2 m/S 640 mmHg 63%
    01:00 -8°C° 0 mm 2 m/S 640 mmHg 63%
    02:00 -8°C° 0 mm 2 m/S 640 mmHg 63%
    03:00 -8°C° 0 mm 2 m/S 640 mmHg 63%
    04:00 -8°C° 0 mm 2 m/S 641 mmHg 64%
    05:00 -7°C° 0 mm 2 m/S 641 mmHg 64%
    06:00 -7°C° 0 mm 2 m/S 642 mmHg 65%
    07:00 -7°C° 0 mm 2 m/S 642 mmHg 64%
    08:00 -6°C° 0 mm 2 m/S 643 mmHg 63%
    09:00 -5°C° 0 mm 2 m/S 644 mmHg 62%
    10:00 -4°C° 0 mm 2 m/S 644 mmHg 59%
    11:00 -4°C° 0 mm 2 m/S 644 mmHg 55%
    12:00 -3°C° 0 mm 2 m/S 644 mmHg 52%
    13:00 -3°C° 0 mm 2 m/S 644 mmHg 51%
    14:00 -3°C° 0 mm 2 m/S 644 mmHg 51%
    15:00 -3°C° 0 mm 2 m/S 644 mmHg 50%
    16:00 -4°C° 0 mm 2 m/S 644 mmHg 53%
    17:00 -5°C° 0 mm 2 m/S 644 mmHg 55%
    18:00 -6°C° 0 mm 2 m/S 645 mmHg 58%
    19:00 -7°C° 0 mm 2 m/S 645 mmHg 57%
    20:00 -7°C° 0 mm 2 m/S 645 mmHg 57%
    21:00 -7°C° 0 mm 2 m/S 645 mmHg 57%
    22:00 -6°C° 0 mm 1 m/S 645 mmHg 57%
    23:00 -6°C° 0 mm 1 m/S 645 mmHg 57%

    26 November, Sonntag

    Zeit Temperatur Niederschläge Wind Luftdruck Luftfeuchtigkeit
    00:00 -6°C° 0 mm 1 m/S 645 mmHg 58%
    01:00 -6°C° 0 mm 1 m/S 645 mmHg 58%
    02:00 -6°C° 0 mm 1 m/S 645 mmHg 57%
    03:00 -6°C° 0 mm 1 m/S 645 mmHg 57%
    04:00 -6°C° 0 mm 1 m/S 645 mmHg 57%
    05:00 -6°C° 0 mm 1 m/S 645 mmHg 57%
    06:00 -7°C° 0 mm 1 m/S 644 mmHg 57%
    07:00 -4°C° 0 mm 1 m/S 645 mmHg 55%
    08:00 -3°C° 0 mm 1 m/S 645 mmHg 52%
    09:00 -1°C° 0 mm 1 m/S 646 mmHg 49%
    10:00 -2°C° 0 mm 2 m/S 645 mmHg 47%
    11:00 -1°C° 0 mm 2 m/S 645 mmHg 44%
    12:00 +1°C° 0 mm 2 m/S 645 mmHg 41%
    13:00 +1°C° 0 mm 2 m/S 644 mmHg 41%
    14:00 +1°C° 0 mm 2 m/S 644 mmHg 40%
    15:00 +1°C° 0 mm 2 m/S 643 mmHg 40%
    16:00 -1°C° 0 mm 2 m/S 643 mmHg 41%
    17:00 -3°C° 0 mm 2 m/S 643 mmHg 42%
    18:00 -4°C° 0 mm 2 m/S 643 mmHg 43%
    19:00 -4°C° 0 mm 2 m/S 643 mmHg 42%
    20:00 -5°C° 0 mm 2 m/S 643 mmHg 40%
    21:00 -5°C° 0 mm 2 m/S 643 mmHg 39%
    22:00 -3°C° 0 mm 1 m/S 643 mmHg 39%
    23:00 -3°C° 0 mm 1 m/S 643 mmHg 39%

    27 November, Montag

    Zeit Temperatur Niederschläge Wind Luftdruck Luftfeuchtigkeit
    00:00 -3°C° 0 mm 1 m/S 643 mmHg 39%
    01:00 -3°C° 0 mm 1 m/S 642 mmHg 39%
    02:00 -3°C° 0 mm 1 m/S 642 mmHg 39%
    03:00 -4°C° 0 mm 1 m/S 642 mmHg 39%
    04:00 -4°C° 0 mm 1 m/S 642 mmHg 39%
    05:00 -4°C° 0 mm 1 m/S 642 mmHg 39%
    06:00 -4°C° 0 mm 1 m/S 641 mmHg 39%
    07:00 -2°C° 0 mm 1 m/S 642 mmHg 38%
    08:00 -1°C° 0 mm 1 m/S 642 mmHg 37%
    09:00 +1°C° 0 mm 1 m/S 643 mmHg 36%
    10:00 +2°C° 0 mm 1 m/S 642 mmHg 35%
    11:00 +2°C° 0 mm 2 m/S 642 mmHg 35%
    12:00 +3°C° 0 mm 2 m/S 642 mmHg 34%
    13:00 +3°C° 0 mm 2 m/S 642 mmHg 34%
    14:00 +3°C° 0 mm 2 m/S 641 mmHg 34%
    15:00 +3°C° 0 mm 2 m/S 641 mmHg 33%
    16:00 +2°C° 0 mm 2 m/S 641 mmHg 34%
    17:00 -1°C° 0 mm 2 m/S 641 mmHg 35%
    18:00 -2°C° 0 mm 2 m/S 641 mmHg 36%
    19:00 -1°C° 0 mm 1 m/S 641 mmHg 36%
    20:00 -1°C° 0 mm 1 m/S 641 mmHg 36%
    21:00 -1°C° 0 mm 1 m/S 641 mmHg 36%
    22:00 -1°C° 0 mm 1 m/S 640 mmHg 37%
    23:00 -1°C° 0 mm 1 m/S 640 mmHg 39%

    28 November, Dienstag

    Zeit Temperatur Niederschläge Wind Luftdruck Luftfeuchtigkeit
    00:00 -2°C° 0 mm 1 m/S 640 mmHg 40%
    01:00 -2°C° 0 mm 1 m/S 640 mmHg 41%
    02:00 -2°C° 0 mm 1 m/S 640 mmHg 43%
    03:00 -2°C° 0 mm 1 m/S 640 mmHg 45%
    04:00 -2°C° 0 mm 1 m/S 640 mmHg 46%
    05:00 -2°C° 0 mm 1 m/S 640 mmHg 47%
    06:00 -2°C° 0 mm 1 m/S 640 mmHg 49%
    07:00 -3°C° 0 mm 2 m/S 640 mmHg 48%
    08:00 -2°C° 0 mm 2 m/S 640 mmHg 48%
    09:00 +1°C° 0 mm 2 m/S 641 mmHg 48%
    10:00 +2°C° 0 mm 2 m/S 640 mmHg 48%
    11:00 +3°C° 0 mm 2 m/S 640 mmHg 48%
    12:00 +4°C° 0 mm 2 m/S 640 mmHg 48%
    13:00 +4°C° 0 mm 2 m/S 640 mmHg 49%
    14:00 +4°C° 0 mm 2 m/S 639 mmHg 50%
    15:00 +4°C° 0 mm 2 m/S 639 mmHg 51%
    16:00 +3°C° 0 mm 2 m/S 639 mmHg 53%
    17:00 +1°C° 0 mm 2 m/S 639 mmHg 56%
    18:00 -1°C° 0 mm 2 m/S 640 mmHg 58%
    19:00 -1°C° 0 mm 2 m/S 640 mmHg 59%
    20:00 -2°C° 0 mm 2 m/S 640 mmHg 61%
    21:00 0°C° 0 mm 1 m/S 640 mmHg 62%
    22:00 0°C° 0 mm 1 m/S 640 mmHg 63%
    23:00 0°C° 0 mm 1 m/S 640 mmHg 64%
    Mehr zeigen